Location: Winningkoff
(33.1112°N, 96.5636°W)
Time: 13:12:36
(UTC+00:00)

Daily predictions for brighter satellites

Satellite Brightness Start Highest point End
(mag) Time Altitude Azimuth Time Altitude Azimuth Time Altitude Azimuth
OAO 2 Rocket 3.3 12:05:30 20° W 12:09:08 85° N 12:14:17 10° ENE
Cosmos 1758 Rocket 3.7 12:07:31 10° S 12:11:56 76° E 12:16:20 10° N
NOSS 3-1 (C) 4.3 12:04:55 13° NW 12:12:07 66° WSW 12:21:24 10° SSE
Meteor 2-20 Rocket 4.2 12:08:49 10° N 12:14:33 87° W 12:20:16 10° S
BREEZE-M DEB (TANK) 4.0 12:11:27 10° SW 12:15:25 73° SE 12:30:20 10° NE
Cosmos 1484 Rocket 2.2 12:12:25 10° N 12:15:47 78° WNW 12:19:07 10° SSW
BREEZE-M DEB (TANK) 3.6 12:14:36 10° SW 12:20:57 72° SE 12:23:40 10° NE
Helios 1A Rocket 2.3 12:19:23 10° S 12:22:40 61° WSW 12:25:59 10° NNW
ISS -1.6 12:20:10 10° SSW 12:23:09 30° SE 12:26:08 10° ENE
IRS-1D 4.5 12:20:08 10° NNW 12:24:11 25° WNW 12:28:16 10° WSW
[s.n.66875] 1.8 12:23:53 10° SW 12:26:24 60° SSE 12:28:54 10° ENE
[s.n.66873] 1.7 12:24:35 10° SW 12:27:05 62° SSE 12:29:36 10° ENE
[s.n.66876] 1.7 12:25:04 10° SW 12:27:34 62° SSE 12:30:05 10° ENE
[s.n.66874] 1.7 12:25:51 10° SW 12:28:22 64° SE 12:30:53 10° ENE
OAO 3 Copernicus 4.3 12:24:50 15° W 12:29:01 70° N 12:34:01 10° E
[s.n.66872] 1.6 12:26:39 10° SW 12:29:09 66° SSE 12:31:41 10° ENE
[s.n.66871] 1.6 12:27:11 10° SW 12:29:42 67° SSE 12:32:14 10° ENE
[s.n.66870] 1.6 12:28:00 10° SW 12:30:32 69° SSE 12:33:04 10° ENE
Cosmos 2360 Rocket 2.4 12:25:24 10° NNW 12:31:02 74° ENE 12:36:37 10° SSE
Tiangong -0.6 12:29:07 14° W 12:31:10 25° SW 12:33:53 10° SSE
Cosmos 1833 4.4 12:25:48 10° SW 12:31:12 49° WNW 12:36:42 10° N
[s.n.66869] 1.5 12:28:47 10° SW 12:31:19 70° SE 12:33:52 10° ENE
[s.n.66868] 1.5 12:29:25 10° SW 12:31:56 72° SSE 12:34:29 10° ENE
[s.n.66867] 1.5 12:30:12 10° SW 12:32:44 73° SSE 12:35:16 10° ENE
Cosmos 405 Rocket 2.9 12:30:08 10° SW 12:33:06 34° W 12:36:07 10° NNW
COSMO-SKYMED 1 2.9 12:29:27 10° S 12:33:18 40° W 12:37:12 10° NNW
[s.n.66866] 1.4 12:30:57 10° SW 12:33:29 75° SSE 12:36:02 10° ENE
[s.n.66865] 1.4 12:31:29 10° SW 12:34:01 76° SSE 12:36:35 10° ENE
Cosmos 1626 Rocket 3.8 12:30:02 10° SSW 12:34:15 46° W 12:38:30 10° N
[s.n.66860] 1.4 12:32:09 10° SW 12:34:42 78° SSE 12:37:15 10° ENE
CZ-2D R/B 4.4 12:31:49 10° NNE 12:34:48 38° E 12:37:46 10° S
[s.n.66864] 1.4 12:32:47 10° SW 12:35:20 79° SE 12:37:53 10° ENE
OAO 3 Rocket 3.1 12:30:49 10° W 12:35:28 85° NNW 12:40:14 10° ENE
[s.n.66863] 1.4 12:33:23 10° SW 12:35:55 80° SSE 12:38:29 10° ENE
[s.n.66861] 1.3 12:34:12 10° WSW 12:36:45 82° SSE 12:39:18 10° ENE
Cosmos 2333 Rocket 2.3 12:31:34 10° NNW 12:37:16 63° WSW 12:42:52 10° S
[s.n.66862] 1.3 12:34:51 10° WSW 12:37:23 84° SSE 12:39:57 10° ENE
Cosmos-2242 3.5 12:33:43 10° NNW 12:37:35 37° W 12:41:25 10° SSW
[s.n.66859] 1.3 12:35:33 10° WSW 12:38:06 85° SSE 12:40:40 10° ENE
[s.n.66858] 1.3 12:36:13 10° WSW 12:38:47 87° SE 12:41:20 10° ENE
[s.n.66857] 1.3 12:36:48 10° WSW 12:39:21 88° SSE 12:41:56 10° ENE
[s.n.66856] 1.3 12:37:22 10° WSW 12:39:55 89° SSW 12:42:29 10° ENE
USA 59 Rocket 2.0 12:36:57 11° WNW 12:40:01 20° WSW 12:44:08 10° SSW
[s.n.66855] 1.2 12:38:03 10° WSW 12:40:35 88° WNW 12:43:10 10° ENE
[s.n.66854] 1.2 12:38:38 10° WSW 12:41:11 88° NNW 12:43:46 10° ENE
Okean 1 3.7 12:38:14 10° NNW 12:41:28 33° W 12:44:40 10° SSW
[s.n.66853] 1.2 12:39:21 10° WSW 12:41:54 86° NW 12:44:29 10° ENE
[s.n.66852] 1.2 12:40:07 10° WSW 12:42:40 84° NNW 12:45:15 10° ENE
[s.n.66851] 1.2 12:40:39 10° WSW 12:43:11 83° NW 12:45:46 10° ENE
[s.n.66850] 1.2 12:41:11 10° WSW 12:43:45 82° NNW 12:46:19 10° ENE
[s.n.66849] 1.2 12:41:54 10° WSW 12:44:28 80° NNW 12:47:02 10° ENE
[s.n.66848] 1.2 12:42:26 10° WSW 12:45:00 79° NNW 12:47:34 10° ENE
SL-4 R/B 3.9 12:44:45 10° N 12:46:33 14° NNE 12:48:20 10° ENE
MOS 1 Rocket 4.5 12:42:07 10° NNE 12:47:21 55° E 12:52:22 10° S
Cosmos 2219 Rocket 2.8 12:42:04 10° NNW 12:47:38 58° ENE 12:53:08 10° SSE
ARIANE 5 R/B 3.1 12:45:48 10° NNE 12:50:59 66° ESE 12:56:09 10° S
IGS 5A 4.0 12:48:10 10° N 12:51:47 33° WNW 12:55:23 10° SW
Cosmos 2322 Rocket 2.4 12:49:45 10° NNW 12:55:19 58° WSW 13:00:49 10° S
Cosmos 2285 Rocket 4.1 12:49:00 10° NNW 12:55:23 75° WSW 13:01:46 10° S
ATLAS 2AS CENTAUR R/B 3.0 12:50:25 10° SW 12:57:14 48° NW 13:03:54 10° NNE
Cosmos 773 Rocket 4.3 23:43:07 10° NNW 23:48:21 78° WSW 23:53:35 10° S
IRIDIUM 103 4.3 23:43:20 10° N 23:48:32 69° E 23:53:43 10° S
MOS 1 Rocket 4.1 23:45:07 10° SE 23:49:24 33° ENE 23:53:55 10° N
Cosmos 990 Rocket 4.1 23:45:10 10° SSW 23:50:16 84° WNW 23:55:26 10° NNE
Cosmos 2227 Rocket 2.9 23:46:44 10° N 23:51:41 31° ENE 23:56:38 10° SE
EXPRESS MD2 3.1 23:49:40 10° WSW 23:51:47 41° NW 23:54:36 10° NE
Cosmos 2084 Rocket 4.1 23:48:09 10° N 23:51:57 32° NE 23:55:43 10° ESE
Aureole 1 Rocket 3.6 23:50:44 10° S 23:54:25 40° E 23:59:00 10° NNE
